Hourly Weather Kytaihorod

Today, 27 October, Tuesday

Time Temperature Precipitation Wind Pressure Humidity
00:00 +12°C° 0 mm 2 mps 737 mmHg 81%
01:00 +10°C° 0 mm 3 mps 737 mmHg 83%
02:00 +10°C° 0 mm 3 mps 737 mmHg 85%
03:00 +10°C° 0 mm 3 mps 737 mmHg 87%
04:00 +10°C° 0 mm 3 mps 737 mmHg 89%
05:00 +9°C° 0 mm 2 mps 737 mmHg 92%
06:00 +10°C° 0 mm 2 mps 738 mmHg 91%
07:00 +10°C° 0 mm 2 mps 738 mmHg 91%
08:00 +10°C° 0 mm 2 mps 738 mmHg 91%
09:00 +13°C° 0 mm 2 mps 738 mmHg 85%
10:00 +14°C° 0 mm 3 mps 738 mmHg 79%
11:00 +17°C° 0 mm 3 mps 738 mmHg 73%
12:00 +17°C° 0 mm 3 mps 738 mmHg 70%
13:00 +18°C° 0 mm 3 mps 738 mmHg 68%
14:00 +19°C° 0 mm 3 mps 738 mmHg 66%
15:00 +18°C° 0 mm 3 mps 738 mmHg 69%
16:00 +17°C° 0 mm 3 mps 738 mmHg 72%
17:00 +17°C° 0 mm 3 mps 738 mmHg 75%
18:00 +16°C° 0 mm 3 mps 738 mmHg 76%
19:00 +14°C° 0 mm 3 mps 738 mmHg 77%
20:00 +14°C° 0 mm 3 mps 739 mmHg 79%
21:00 +13°C° 0 mm 3 mps 739 mmHg 82%
22:00 +13°C° 0 mm 3 mps 739 mmHg 85%
23:00 +12°C° 0 mm 3 mps 739 mmHg 88%

Tomorrow, 28 October, Wednesday

Time Temperature Precipitation Wind Pressure Humidity
00:00 +12°C° 0 mm 3 mps 739 mmHg 90%
01:00 +12°C° 0 mm 3 mps 739 mmHg 92%
02:00 +12°C° 0 mm 2 mps 739 mmHg 94%
03:00 +11°C° 0 mm 3 mps 739 mmHg 95%
04:00 +11°C° 0 mm 3 mps 739 mmHg 96%
05:00 +11°C° 0 mm 3 mps 739 mmHg 97%
06:00 +11°C° 0 mm 3 mps 739 mmHg 94%
07:00 +11°C° 0 mm 3 mps 739 mmHg 91%
08:00 +12°C° 0 mm 3 mps 740 mmHg 88%
09:00 +13°C° 0 mm 3 mps 740 mmHg 81%
10:00 +15°C° 0 mm 2 mps 740 mmHg 74%
11:00 +15°C° 0 mm 2 mps 740 mmHg 67%
12:00 +16°C° 0 mm 2 mps 740 mmHg 63%
13:00 +17°C° 0 mm 2 mps 740 mmHg 59%
14:00 +17°C° 0 mm 2 mps 739 mmHg 55%
15:00 +17°C° 0 mm 2 mps 739 mmHg 58%
16:00 +16°C° 0 mm 2 mps 739 mmHg 62%
17:00 +15°C° 0 mm 1 mps 739 mmHg 65%
18:00 +14°C° 0 mm 1 mps 739 mmHg 66%
19:00 +14°C° 0 mm 1 mps 739 mmHg 67%
20:00 +13°C° 0 mm 1 mps 739 mmHg 69%
21:00 +13°C° 0 mm 1 mps 739 mmHg 70%
22:00 +12°C° 0 mm 1 mps 739 mmHg 71%
23:00 +12°C° 0 mm 1 mps 739 mmHg 71%

Day after tomorrow, 29 October, Thursday

Time Temperature Precipitation Wind Pressure Humidity
00:00 +12°C° 0 mm 1 mps 739 mmHg 73%
01:00 +11°C° 0 mm 1 mps 739 mmHg 75%
02:00 +11°C° 0 mm 1 mps 739 mmHg 76%
03:00 +11°C° 0 mm 1 mps 739 mmHg 77%
04:00 +10°C° 0 mm 1 mps 739 mmHg 78%
05:00 +10°C° 0 mm 1 mps 739 mmHg 79%
06:00 +10°C° 0 mm 1 mps 739 mmHg 78%
07:00 +11°C° 0 mm 1 mps 739 mmHg 78%
08:00 +11°C° 0 mm 1 mps 739 mmHg 77%
09:00 +11°C° 0 mm 0 mps 739 mmHg 72%
10:00 +12°C° 0 mm 0 mps 739 mmHg 67%
11:00 +13°C° 0 mm 0 mps 739 mmHg 62%
12:00 +14°C° 0 mm 0 mps 739 mmHg 60%
13:00 +16°C° 0 mm 1 mps 738 mmHg 58%
14:00 +16°C° 0 mm 1 mps 738 mmHg 56%
15:00 +15°C° 0 mm 1 mps 738 mmHg 60%
16:00 +14°C° 0 mm 1 mps 738 mmHg 64%
17:00 +14°C° 0 mm 1 mps 738 mmHg 68%
18:00 +13°C° 0 mm 1 mps 738 mmHg 70%
19:00 +13°C° 0 mm 1 mps 738 mmHg 73%
20:00 +12°C° 0 mm 1 mps 738 mmHg 75%
21:00 +12°C° 0 mm 1 mps 738 mmHg 76%
22:00 +11°C° 0 mm 0 mps 738 mmHg 77%
23:00 +11°C° 0 mm 0 mps 738 mmHg 78%

30 October, Friday

Time Temperature Precipitation Wind Pressure Humidity
00:00 +12°C° 0 mm 1 mps 738 mmHg 78%
01:00 +12°C° 0 mm 1 mps 738 mmHg 79%
02:00 +12°C° 0 mm 1 mps 738 mmHg 79%
03:00 +12°C° 0 mm 1 mps 738 mmHg 80%
04:00 +12°C° 0 mm 1 mps 738 mmHg 80%
05:00 +12°C° 0 mm 1 mps 738 mmHg 81%
06:00 +12°C° 0.1 mm 2 mps 738 mmHg 81%
07:00 +12°C° 0.1 mm 2 mps 738 mmHg 82%
08:00 +12°C° 0.1 mm 2 mps 738 mmHg 82%
09:00 +13°C° 0 mm 2 mps 738 mmHg 79%
10:00 +13°C° 0 mm 2 mps 738 mmHg 75%
11:00 +14°C° 0 mm 2 mps 739 mmHg 71%
12:00 +14°C° 0.1 mm 2 mps 739 mmHg 70%
13:00 +13°C° 0.1 mm 3 mps 739 mmHg 69%
14:00 +13°C° 0.1 mm 3 mps 739 mmHg 68%
15:00 +12°C° 0.1 mm 3 mps 739 mmHg 69%
16:00 +12°C° 0.1 mm 3 mps 739 mmHg 71%
17:00 +11°C° 0.1 mm 4 mps 740 mmHg 72%
18:00 +11°C° 0 mm 4 mps 740 mmHg 75%
19:00 +9°C° 0 mm 5 mps 740 mmHg 77%
20:00 +8°C° 0 mm 6 mps 740 mmHg 80%
21:00 +8°C° 0.2 mm 6 mps 740 mmHg 81%
22:00 +8°C° 0.2 mm 5 mps 740 mmHg 81%
23:00 +8°C° 0.2 mm 5 mps 741 mmHg 82%

31 October, Saturday

Time Temperature Precipitation Wind Pressure Humidity
00:00 +7°C° 0.3 mm 5 mps 741 mmHg 82%
01:00 +7°C° 0.3 mm 6 mps 741 mmHg 81%
02:00 +7°C° 0.3 mm 6 mps 741 mmHg 80%
03:00 +7°C° 0.1 mm 6 mps 741 mmHg 79%
04:00 +7°C° 0.1 mm 5 mps 741 mmHg 78%
05:00 +7°C° 0.1 mm 5 mps 741 mmHg 77%
06:00 +7°C° 0 mm 5 mps 741 mmHg 77%
07:00 +6°C° 0 mm 5 mps 741 mmHg 77%
08:00 +6°C° 0 mm 5 mps 742 mmHg 77%
09:00 +7°C° 0 mm 5 mps 742 mmHg 75%
10:00 +7°C° 0 mm 5 mps 742 mmHg 73%
11:00 +7°C° 0 mm 5 mps 742 mmHg 71%
12:00 +7°C° 0.1 mm 5 mps 742 mmHg 71%
13:00 +7°C° 0.1 mm 5 mps 742 mmHg 72%
14:00 +7°C° 0.1 mm 5 mps 742 mmHg 73%
15:00 +7°C° 0 mm 5 mps 742 mmHg 72%
16:00 +7°C° 0 mm 4 mps 742 mmHg 72%
17:00 +7°C° 0 mm 4 mps 742 mmHg 72%
18:00 +7°C° 0 mm 4 mps 742 mmHg 73%
19:00 +7°C° 0 mm 5 mps 742 mmHg 74%
20:00 +7°C° 0 mm 5 mps 742 mmHg 75%
21:00 +6°C° 0 mm 5 mps 742 mmHg 78%
22:00 +6°C° 0 mm 5 mps 741 mmHg 81%
23:00 +6°C° 0 mm 5 mps 741 mmHg 83%

1 November, Sunday

Time Temperature Precipitation Wind Pressure Humidity
00:00 +6°C° 0 mm 5 mps 741 mmHg 85%
01:00 +7°C° 0 mm 5 mps 741 mmHg 86%
02:00 +7°C° 0 mm 6 mps 741 mmHg 87%
03:00 +7°C° 0.1 mm 6 mps 741 mmHg 86%
04:00 +7°C° 0.1 mm 6 mps 740 mmHg 85%
05:00 +7°C° 0.1 mm 6 mps 740 mmHg 85%
06:00 +6°C° 0.2 mm 7 mps 740 mmHg 85%
07:00 +6°C° 0.2 mm 7 mps 740 mmHg 86%
08:00 +5°C° 0.2 mm 7 mps 740 mmHg 86%
09:00 +6°C° 0.3 mm 8 mps 739 mmHg 87%
10:00 +6°C° 0.3 mm 8 mps 739 mmHg 87%
11:00 +6°C° 0.3 mm 8 mps 739 mmHg 87%
12:00 +7°C° 1.4 mm 8 mps 739 mmHg 88%
13:00 +7°C° 1.4 mm 8 mps 738 mmHg 88%
14:00 +7°C° 1.4 mm 9 mps 738 mmHg 89%
15:00 +7°C° 1 mm 8 mps 738 mmHg 90%
16:00 +8°C° 1 mm 7 mps 738 mmHg 90%
17:00 +8°C° 1 mm 7 mps 738 mmHg 91%
18:00 +8°C° 0.5 mm 7 mps 738 mmHg 91%
19:00 +9°C° 0.5 mm 6 mps 738 mmHg 91%
20:00 +9°C° 0.5 mm 6 mps 738 mmHg 91%
21:00 +9°C° 0.6 mm 6 mps 738 mmHg 92%
22:00 +9°C° 0.6 mm 6 mps 738 mmHg 93%
23:00 +9°C° 0.6 mm 5 mps 738 mmHg 94%
Show more

We Need Your Consent

Meteoprog and our Service Providers may store and access personal data such as cookies, device identifiers or other similar technologies on your device and process such data to personalise content and ads, as well as provide social media features and to analyse the traffic.

  • Store and/or access information on your device

    Cookies, device identifiers or other information can be stored or accessed on your device for the purposes indicated above.

  • Personalised ads and content, ad and content measurement, audience insights, and products development

    Ads and content can be personalised based on a profile. More data can be added to better personalise ads and content. Ad and content performance can be measured. Insights about the audience who saw the ads and content can be derived. Such data can be used to develop or improve user’s experience, systems and software.

By clicking ‘I Agree’ you will allow the use of indicated cookies, device identifiers, web beacons or other similar technologies. Your settings can be changed in the browser on your device.

For certain purposes, legitimate interests may be relied on, rather than consent. You can read more about this in our Privacy and Cookie Policy.